| time (UTC) | temp C | wind direction | speed KPH | gust KPH | rain 1hr cm | rain 24hr cm | rain mn cm | humidity % | barometer mb |
| 20260505164538 | 2 | 338 | 3.2 | 9.7 | 0.03 | 0.05 | 0.05 | 70 | 1010.1 |
| 20260505163037 | 2 | 338 | 3.2 | 9.7 | 0.03 | 0.05 | 0.05 | 70 | 1010.2 |
| 20260505161518 | 2 | 0.0 | 3.2 | 0.00 | 0.03 | 0.03 | 70 | 1010.2 | |
| 20260505153017 | 2 | 338 | 3.2 | 8.0 | 0.00 | 0.03 | 0.03 | 70 | 1010.1 |
| 20260505151517 | 1 | 338 | 4.8 | 8.0 | 0.00 | 0.03 | 0.03 | 71 | 1010.1 |
| 20260505124517 | 1 | 338 | 8.0 | 14.5 | 0.00 | 0.03 | 0.03 | 70 | 1010.4 |
| 20260505123017 | 1 | 338 | 8.0 | 16.1 | 0.00 | 0.03 | 0.03 | 70 | 1009.9 |
| 20260505121517 | 1 | 338 | 8.0 | 17.7 | 0.00 | 0.03 | 0.03 | 70 | 1010.4 |
| 20260505120017 | 1 | 338 | 6.4 | 17.7 | 0.00 | 0.03 | 0.03 | 70 | 1010.0 |
| 20260505114517 | 2 | 338 | 8.0 | 22.5 | 0.00 | 0.03 | 0.03 | 69 | 1010.0 |
| 20260505113037 | 2 | 338 | 9.7 | 20.9 | 0.00 | 0.03 | 0.03 | 69 | 1010.3 |
| 20260505111517 | 3 | 315 | 9.7 | 22.5 | 0.00 | 0.03 | 0.03 | 69 | 1010.3 |
| 20260505101517 | 4 | 338 | 9.7 | 25.7 | 0.00 | 0.03 | 0.03 | 68 | 1010.1 |
| 20260505100017 | 5 | 315 | 8.0 | 24.1 | 0.00 | 0.03 | 0.03 | 67 | 1010.3 |
| 20260505094517 | 5 | 0 | 8.0 | 22.5 | 0.00 | 0.03 | 0.03 | 67 | 1010.1 |
| 20260505093017 | 5 | 315 | 9.7 | 25.7 | 0.00 | 0.03 | 0.03 | 67 | 1011.0 |
| 20260505091516 | 5 | 315 | 8.0 | 20.9 | 0.00 | 0.03 | 0.03 | 67 | 1010.7 |
| 20260505090016 | 5 | 315 | 9.7 | 19.3 | 0.00 | 0.03 | 0.03 | 66 | 1010.5 |
| 20260505084537 | 6 | 338 | 9.7 | 22.5 | 0.00 | 0.03 | 0.03 | 66 | 1010.6 |
| 20260505083017 | 6 | 338 | 8.0 | 20.9 | 0.00 | 0.03 | 0.03 | 66 | 1010.0 |
| 20260505081518 | 7 | 315 | 8.0 | 24.1 | 0.00 | 0.03 | 0.03 | 65 | 1010.3 |
| 20260505080017 | 8 | 0.0 | 8.0 | 0.00 | 0.03 | 0.03 | 64 | 1010.5 | |
| 20260505074517 | 8 | 0.0 | 0.0 | 0.00 | 0.03 | 0.03 | 64 | 1010.5 | |
| 20260505073017 | 8 | 0.0 | 0.0 | 0.00 | 0.03 | 0.03 | 64 | 1011.6 | |
| 20260505071516 | 8 | 0.0 | 0.0 | 0.03 | 0.03 | 0.03 | 64 | 1011.6 | |
| 20260505070017 | 8 | 0.0 | 0.0 | 0.03 | 0.03 | 0.03 | 64 | 1011.4 | |
| 20260505064516 | 8 | 0.0 | 0.0 | 0.03 | 0.03 | 0.03 | 64 | 1011.5 | |
| 20260505063016 | 8 | 0.0 | 3.2 | 0.03 | 0.03 | 0.03 | 64 | 1011.5 | |
| 20260505061516 | 8 | 0.0 | 4.8 | 0.00 | 0.00 | 0.00 | 64 | 1011.5 | |
| 20260505060056 | 8 | 0.0 | 4.8 | 0.00 | 0.00 | 0.00 | 64 | 1011.6 | |
| 20260505054538 | 7 | 0.0 | 4.8 | 0.00 | 0.00 | 0.00 | 64 | 1011.6 | |
| 20260505053019 | 7 | 0.0 | 3.2 | 0.00 | 0.00 | 0.00 | 64 | 1010.8 | |
| 20260505051518 | 8 | 0.0 | 3.2 | 0.00 | 0.00 | 0.00 | 64 | 1010.9 | |
| 20260505041518 | 8 | 0.0 | 4.8 | 0.00 | 0.00 | 0.00 | 64 | 1011.5 | |
| 20260505040018 | 8 | 293 | 1.6 | 8.0 | 0.00 | 0.00 | 0.00 | 63 | 1010.7 |
| 20260505034518 | 8 | 0.0 | 4.8 | 0.00 | 0.00 | 0.00 | 63 | 1010.8 | |
| 20260505033018 | 9 | 293 | 1.6 | 6.4 | 0.00 | 0.00 | 0.00 | 63 | 1010.7 |
| 20260505031518 | 9 | 315 | 4.8 | 16.1 | 0.00 | 0.00 | 0.00 | 63 | 1010.3 |
| 20260505030018 | 10 | 315 | 6.4 | 16.1 | 0.00 | 0.00 | 0.00 | 63 | 1009.1 |
| 20260505024518 | 10 | 315 | 6.4 | 14.5 | 0.00 | 0.00 | 0.00 | 63 | 1008.9 |
| 20260505023018 | 11 | 338 | 6.4 | 14.5 | 0.00 | 0.00 | 0.00 | 62 | 1008.0 |
| 20260505021537 | 11 | 315 | 8.0 | 17.7 | 0.00 | 0.00 | 0.00 | 62 | 1007.9 |
| 20260505020018 | 11 | 315 | 9.7 | 20.9 | 0.00 | 0.00 | 0.00 | 61 | 1007.7 |
| 20260505014538 | 13 | 0 | 4.8 | 20.9 | 0.00 | 0.00 | 0.00 | 58 | 1008.1 |
| 20260505013018 | 13 | 0 | 1.6 | 8.0 | 0.00 | 0.00 | 0.00 | 56 | 1006.7 |
| 20260505011517 | 13 | 315 | 1.6 | 4.8 | 0.00 | 0.00 | 0.00 | 55 | 1007.1 |
| 20260505010018 | 14 | 315 | 3.2 | 9.7 | 0.00 | 0.00 | 0.00 | 53 | 1006.5 |
| 20260505004517 | 14 | 0.0 | 8.0 | 0.00 | 0.00 | 0.00 | 51 | 1006.9 | |
| 20260505003018 | 14 | 293 | 3.2 | 9.7 | 0.00 | 0.00 | 0.00 | 49 | 1006.3 |
| 20260505001518 | 15 | 315 | 8.0 | 16.1 | 0.00 | 0.00 | 0.00 | 46 | 1006.4 |
| 20260505000018 | 15 | 315 | 8.0 | 16.1 | 0.00 | 0.00 | 0.00 | 44 | 1005.8 |
| 20260504234518 | 15 | 315 | 9.7 | 19.3 | 0.00 | 0.00 | 0.00 | 44 | 1006.0 |
| 20260504233019 | 15 | 315 | 9.7 | 22.5 | 0.00 | 0.00 | 0.00 | 44 | 1005.5 |
| 20260504231518 | 15 | 315 | 8.0 | 19.3 | 0.00 | 0.00 | 0.00 | 45 | 1005.2 |
| 20260504230017 | 16 | 315 | 11.3 | 22.5 | 0.00 | 0.00 | 0.00 | 43 | 1005.1 |
| 20260504224517 | 16 | 293 | 11.3 | 20.9 | 0.00 | 0.00 | 0.00 | 41 | 1005.5 |
| 20260504223017 | 16 | 315 | 9.7 | 25.7 | 0.00 | 0.00 | 0.00 | 39 | 1005.4 |
| 20260504221517 | 16 | 338 | 9.7 | 24.1 | 0.00 | 0.00 | 0.00 | 39 | 1005.3 |
| 20260504220017 | 17 | 315 | 11.3 | 30.6 | 0.00 | 0.00 | 0.00 | 37 | 1004.9 |
| 20260504214517 | 17 | 338 | 12.9 | 35.4 | 0.00 | 0.00 | 0.00 | 36 | 1004.8 |
| 20260504213017 | 18 | 315 | 11.3 | 25.7 | 0.00 | 0.00 | 0.00 | 35 | 1005.0 |
| 20260504211518 | 20 | 68 | 6.4 | 22.5 | 0.00 | 0.00 | 0.00 | 28 | 1006.0 |
| 20260504210017 | 20 | 135 | 4.8 | 19.3 | 0.00 | 0.00 | 0.00 | 28 | 1005.8 |
| 20260504204517 | 19 | 158 | 3.2 | 11.3 | 0.00 | 0.00 | 0.00 | 30 | 1006.0 |
| 20260504203017 | 18 | 158 | 6.4 | 20.9 | 0.00 | 0.00 | 0.00 | 32 | 1005.8 |
| 20260504201537 | 17 | 203 | 4.8 | 16.1 | 0.00 | 0.00 | 0.00 | 33 | 1005.8 |
| 20260504200017 | 16 | 225 | 6.4 | 33.8 | 0.00 | 0.00 | 0.00 | 38 | 1006.5 |
| 20260504194517 | 18 | 225 | 6.4 | 22.5 | 0.00 | 0.00 | 0.00 | 35 | 1006.8 |
| 20260504193017 | 20 | 135 | 1.6 | 9.7 | 0.00 | 0.00 | 0.00 | 24 | 1007.1 |
| 20260504191518 | 20 | 293 | 4.8 | 17.7 | 0.00 | 0.00 | 0.00 | 25 | 1007.3 |
| 20260504190017 | 20 | 23 | 4.8 | 12.9 | 0.00 | 0.00 | 0.00 | 24 | 1007.2 |
| 20260504184517 | 20 | 293 | 6.4 | 17.7 | 0.00 | 0.00 | 0.00 | 26 | 1007.4 |
| 20260504183037 | 20 | 315 | 9.7 | 22.5 | 0.00 | 0.00 | 0.00 | 26 | 1007.8 |
| 20260504181517 | 20 | 315 | 12.9 | 27.4 | 0.00 | 0.00 | 0.00 | 28 | 1008.0 |
| 20260504180017 | 21 | 315 | 14.5 | 25.7 | 0.00 | 0.00 | 0.00 | 28 | 1008.8 |
| 20260504174517 | 21 | 315 | 12.9 | 29.0 | 0.00 | 0.00 | 0.00 | 28 | 1009.1 |
| 20260504173017 | 20 | 315 | 14.5 | 24.1 | 0.00 | 0.00 | 0.00 | 30 | 1008.8 |
| 20260504171517 | 20 | 315 | 12.9 | 29.0 | 0.00 | 0.00 | 0.00 | 30 | 1009.2 |